TimeCDT,TemperatureF,Dew PointF,Humidity,Sea Level PressureIn,VisibilityMPH,Wind Direction,Wind SpeedMPH,Gust SpeedMPH,PrecipitationIn,Events,Conditions,WindDirDegrees,DateUTC
12:17 AM,37.4,35.6,93,29.90,5.0,ENE,26.5,33.4,N/A,,Overcast,60,2013-04-09 05:17:00
12:37 AM,37.4,35.6,93,29.92,5.0,NE,21.9,32.2,N/A,,Overcast,50,2013-04-09 05:37:00
12:57 AM,37.4,35.6,93,29.90,5.0,NE,25.3,34.5,N/A,,Overcast,50,2013-04-09 05:57:00
1:17 AM,37.4,35.6,93,29.91,4.0,NE,21.9,33.4,N/A,,Overcast,40,2013-04-09 06:17:00
1:37 AM,35.6,33.8,93,29.90,4.0,NNE,17.3,24.2,N/A,,Overcast,30,2013-04-09 06:37:00
1:57 AM,33.8,32.0,93,29.88,4.0,NE,26.5,32.2,N/A,,Overcast,40,2013-04-09 06:57:00
2:17 AM,33.8,32.0,93,29.88,5.0,NE,25.3,36.8,N/A,,Overcast,40,2013-04-09 07:17:00
2:37 AM,33.8,32.0,93,29.88,5.0,NE,29.9,40.3,N/A,,Overcast,40,2013-04-09 07:37:00
2:57 AM,33.8,32.0,93,29.87,4.0,NE,28.8,43.7,N/A,,Overcast,40,2013-04-09 07:57:00
3:17 AM,33.8,32.0,93,29.87,4.0,NE,26.5,38.0,N/A,,Overcast,40,2013-04-09 08:17:00
3:37 AM,33.8,32.0,93,29.88,4.0,NE,23.0,40.3,N/A,,Overcast,50,2013-04-09 08:37:00
3:57 AM,33.8,32.0,93,29.87,5.0,NE,28.8,44.9,N/A,,Light Drizzle,50,2013-04-09 08:57:00
4:17 AM,32.0,32.0,100,29.84,5.0,NE,35.7,43.7,N/A,Thunderstorm,Drizzle,40,2013-04-09 09:17:00
4:37 AM,32.0,32.0,100,29.86,5.0,NE,28.8,46.0,N/A,Rain,Light Rain,40,2013-04-09 09:37:00
4:57 AM,32.0,32.0,100,29.87,7.0,NE,25.3,39.1,N/A,,Light Drizzle,50,2013-04-09 09:57:00
5:17 AM,32.0,32.0,100,29.87,4.0,NE,24.2,40.3,N/A,,Overcast,40,2013-04-09 10:17:00
5:37 AM,32.0,32.0,100,29.87,5.0,NE,27.6,35.7,0.01,,Overcast,40,2013-04-09 10:37:00
5:57 AM,32.0,32.0,100,29.85,4.0,NE,26.5,36.8,N/A,,Overcast,40,2013-04-09 10:57:00
6:17 AM,32.0,32.0,100,29.86,7.0,NE,19.6,31.1,N/A,,Overcast,40,2013-04-09 11:17:00
6:37 AM,32.0,30.2,93,29.85,4.0,NNE,20.7,32.2,0.03,Thunderstorm,Thunderstorm,30,2013-04-09 11:37:00
6:57 AM,32.0,30.2,93,29.86,3.0,NE,13.8,24.2,N/A,,Overcast,40,2013-04-09 11:57:00
7:18 AM,32.0,32.0,100,29.88,2.5,NNE,12.7,20.7,0.08,Snow,Snow,30,2013-04-09 12:18:00
7:37 AM,32.0,32.0,100,29.89,2.5,NNE,11.5,19.6,0.14,Snow,Light Snow,30,2013-04-09 12:37:00
7:57 AM,32.0,32.0,100,29.88,3.0,NNE,13.8,19.6,N/A,Snow,Snow,30,2013-04-09 12:57:00
8:18 AM,32.0,32.0,100,29.90,4.0,NNE,13.8,19.6,0.01,,Overcast,30,2013-04-09 13:18:00
8:37 AM,32.0,30.2,93,29.92,4.0,NE,11.5,16.1,0.01,,Overcast,40,2013-04-09 13:37:00
8:57 AM,32.0,30.2,93,29.91,3.0,NE,13.8,21.9,N/A,,Overcast,40,2013-04-09 13:57:00
9:17 AM,32.0,30.2,93,29.92,3.0,NE,13.8,20.7,0.02,,Overcast,40,2013-04-09 14:17:00
9:37 AM,32.0,28.4,87,29.92,7.0,NNE,10.4,18.4,0.02,,Overcast,30,2013-04-09 14:37:00
9:57 AM,32.0,28.4,87,29.91,10.0,NE,12.7,20.7,N/A,,Overcast,40,2013-04-09 14:57:00
10:17 AM,30.2,28.4,93,29.92,10.0,NE,13.8,20.7,N/A,,Overcast,40,2013-04-09 15:17:00
10:37 AM,30.2,28.4,93,29.97,7.0,NNE,6.9,-,N/A,,Overcast,30,2013-04-09 15:37:00
10:57 AM,30.2,26.6,86,29.98,3.0,NNE,9.2,-,N/A,Snow,Light Snow,30,2013-04-09 15:57:00
11:17 AM,30.2,26.6,86,29.99,3.0,NNE,8.1,-,N/A,,Overcast,30,2013-04-09 16:17:00
11:38 AM,30.2,26.6,86,30.00,3.0,NNE,5.8,-,N/A,,Overcast,20,2013-04-09 16:38:00
11:57 AM,28.4,26.6,93,30.00,4.0,NNE,8.1,-,N/A,,Overcast,20,2013-04-09 16:57:00
12:17 PM,28.4,26.6,93,29.99,5.0,NNE,9.2,-,N/A,,Overcast,20,2013-04-09 17:17:00
12:37 PM,28.4,24.8,86,30.02,7.0,North,5.8,-,N/A,,Overcast,10,2013-04-09 17:37:00
12:57 PM,28.4,24.8,86,30.02,7.0,NNE,8.1,-,N/A,,Overcast,20,2013-04-09 17:57:00
1:17 PM,26.6,23.0,86,30.03,7.0,NNE,5.8,-,N/A,,Overcast,20,2013-04-09 18:17:00
1:37 PM,28.4,24.8,86,30.01,3.0,NNE,5.8,-,N/A,Snow,Light Snow,20,2013-04-09 18:37:00
1:57 PM,28.4,24.8,86,29.99,2.5,NNE,6.9,-,N/A,Snow,Light Snow,20,2013-04-09 18:57:00
2:17 PM,28.4,24.8,86,30.02,3.0,North,5.8,-,N/A,,Overcast,10,2013-04-09 19:17:00
2:37 PM,28.4,23.0,80,30.06,4.0,North,6.9,-,N/A,,Overcast,10,2013-04-09 19:37:00
2:57 PM,28.4,24.8,86,30.05,5.0,North,5.8,-,N/A,,Overcast,360,2013-04-09 19:57:00
3:17 PM,28.4,23.0,80,30.06,7.0,North,5.8,-,N/A,,Overcast,10,2013-04-09 20:17:00
3:37 PM,26.6,23.0,86,30.05,4.0,NNE,4.6,-,N/A,,Overcast,20,2013-04-09 20:37:00
3:57 PM,26.6,23.0,86,30.05,3.0,NNE,5.8,-,N/A,,Overcast,20,2013-04-09 20:57:00
4:17 PM,26.6,23.0,86,30.04,4.0,North,6.9,-,N/A,,Overcast,10,2013-04-09 21:17:00
4:38 PM,28.4,24.8,86,29.99,3.0,North,8.1,-,N/A,Snow-Thunderstorm,Light Thunderstorms and Snow,10,2013-04-09 21:38:00
4:57 PM,28.4,24.8,86,29.97,10.0,NNE,6.9,-,N/A,,Overcast,20,2013-04-09 21:57:00
5:17 PM,28.4,26.6,93,30.02,7.0,NNE,5.8,-,N/A,,Overcast,20,2013-04-09 22:17:00
5:37 PM,28.4,26.6,93,29.93,7.0,NNE,9.2,-,N/A,,Overcast,30,2013-04-09 22:37:00
5:57 PM,30.2,26.6,86,29.95,10.0,NNE,6.9,-,N/A,,Overcast,20,2013-04-09 22:57:00
6:18 PM,30.2,26.6,86,29.95,10.0,NNE,6.9,-,N/A,,Overcast,30,2013-04-09 23:18:00
6:37 PM,30.2,26.6,86,29.99,7.0,NNE,5.8,-,0.01,Thunderstorm,Thunderstorm,30,2013-04-09 23:37:00
6:57 PM,32.0,28.4,87,30.04,3.0,NNE,5.8,-,N/A,Snow-Thunderstorm,Light Thunderstorms and Snow,20,2013-04-09 23:57:00
7:17 PM,32.0,28.4,87,29.99,2.5,NNE,8.1,-,0.09,Snow,Light Snow,30,2013-04-10 00:17:00
7:37 PM,32.0,28.4,87,30.05,4.0,North,5.8,-,0.12,Snow,Light Snow,10,2013-04-10 00:37:00
7:57 PM,32.0,28.4,87,30.04,3.0,North,8.1,-,N/A,Snow,Light Snow,10,2013-04-10 00:57:00
8:17 PM,32.0,28.4,87,30.07,3.0,North,4.6,-,0.03,Snow-Thunderstorm,Light Thunderstorms and Snow,10,2013-04-10 01:17:00
8:37 PM,32.0,28.4,87,30.08,3.0,NNE,4.6,-,0.09,Snow,Light Snow,30,2013-04-10 01:37:00
8:57 PM,32.0,28.4,87,30.02,3.0,NNE,6.9,-,0.02,Snow-Thunderstorm,Light Thunderstorms and Snow,30,2013-04-10 01:57:00
9:17 PM,32.0,28.4,87,30.05,5.0,NNE,6.9,-,0.05,,Overcast,30,2013-04-10 02:17:00
9:57 PM,32.0,30.2,93,30.03,5.0,NNE,6.9,-,N/A,,Overcast,30,2013-04-10 02:57:00
10:17 PM,32.0,30.2,93,30.00,7.0,NE,6.9,-,N/A,,Overcast,40,2013-04-10 03:17:00
10:37 PM,32.0,30.2,93,30.04,7.0,NNE,5.8,-,0.02,,Overcast,30,2013-04-10 03:37:00
10:57 PM,32.0,30.2,93,30.11,7.0,North,3.5,-,N/A,,Overcast,10,2013-04-10 03:57:00
11:10 PM,32.0,30.2,93,30.10,4.0,NNE,4.6,-,0.02,,Overcast,30,2013-04-10 04:10:00